ISS DEB (56434 NORAD) Tracking and Keplerian Element Data

This shows tracking and keplerian element data for the satellite.

Feedback or suggestion? Click here.




ElementValue
Catalog56434
NameISS DEB
Epoch Orbit1794
Epoch Day238.90188308
Epoch Year2023
RAAN333.6075
Inclination51.6382
Eccentricity0.0008439
Argument of Perigee350.7923
Mean Anonmoly9.2915
Mean Motion15.61607284
Decay Rate0.00061836
L11 56434U 98067VJ 23238.90188308 .00061836 00000+0 70475-3 0 9996
L22 56434 51.6382 333.6075 0008439 350.7923 9.2915 15.61607284 17946



Live tracking and technical data element details for ISS DEB (NORAD 56434). ISS DEB can be tracked NOW for your location showing map with azimuth and elevation plus other details from your city location.







IsCatalogInMostPopularTable: catalog: 56434, numindb: 161
Update: records affected: 1



GetName: 56434 ISS DEB

Hit Count: updated at: Thu, 28 Sep 2023 03:46:01 GMT